GW0019 Weather Reports


time (UTC)temp
F
wind
direction
speed
knots
gust
knots
rain 1hr
in
rain 24hr
in
rain mn
in
humidity
%
barometer
mb
20260508222348 75 208 2.6 10.4 0.00 0.00 0.00 74 1013.7
20260508221844 76 213 7.8 13.0 0.00 0.00 0.00 74 1013.4
20260508221340 75 231 9.6 9.6 0.00 0.00 0.00 74 1013.5
20260508220836 75 213 3.5 9.6 0.00 0.00 0.00 74 1013.5
20260508220333 75 196 7.0 7.8 0.00 0.00 0.00 74 1013.6
20260508215829 74 214 7.8 10.4 0.00 0.00 0.00 74 1013.4
20260508215326 75 195 4.3 8.7 0.00 0.00 0.00 74 1013.6
20260508214823 76 250 3.5 8.7 0.00 0.00 0.00 75 1013.6
20260508214320 75 182 3.5 7.0 0.00 0.00 0.00 74 1013.6
20260508213817 76 148 4.3 4.3 0.00 0.00 0.00 75 1013.6
20260508213314 74 221 6.1 9.6 0.00 0.00 0.00 74 1013.5
20260508212810 76 138 2.6 4.3 0.00 0.00 0.00 75 1013.7
20260508212306 75 244 4.3 6.1 0.00 0.00 0.00 74 1013.7
20260508211802 74 186 4.3 11.3 0.00 0.00 0.00 74 1013.7
20260508211258 75 202 5.2 12.2 0.00 0.00 0.00 74 1013.9
20260508210756 75 249 8.7 10.4 0.00 0.00 0.00 74 1013.9
20260508210252 75 215 6.1 7.8 0.00 0.00 0.00 74 1014.1
20260508205749 75 221 5.2 11.3 0.00 0.00 0.00 74 1014.0
20260508205245 76 233 2.6 7.8 0.00 0.00 0.00 74 1014.0
20260508204742 75 221 4.3 6.1 0.00 0.00 0.00 74 1014.0
20260508204238 75 172 4.3 8.7 0.00 0.00 0.00 74 1014.2
20260508203734 74 207 7.0 13.9 0.00 0.00 0.00 74 1014.4
20260508203231 75 202 3.5 4.3 0.00 0.00 0.00 74 1014.4
20260508202727 76 245 3.5 5.2 0.00 0.00 0.00 74 1014.6
20260508202224 74 213 5.2 10.4 0.00 0.00 0.00 74 1014.4
20260508201721 74 222 8.7 10.4 0.00 0.00 0.00 74 1014.7
20260508201217 74 203 5.2 11.3 0.00 0.00 0.00 74 1014.6
20260508200714 74 198 5.2 9.6 0.00 0.00 0.00 74 1014.6
20260508200211 74 243 7.8 10.4 0.00 0.00 0.00 74 1014.8
20260508195707 73 197 5.2 17.4 0.00 0.00 0.00 74 1014.8
20260508195204 73 207 7.0 11.3 0.00 0.00 0.00 74 1015.1
20260508194700 74 215 6.1 7.0 0.00 0.00 0.00 74 1015.2
20260508194157 74 206 7.8 7.8 0.00 0.00 0.00 74 1015.3
20260508193654 74 205 5.2 12.2 0.00 0.00 0.00 74 1015.3
20260508193151 73 191 6.1 9.6 0.00 0.00 0.00 74 1015.3
20260508192647 73 203 2.6 12.2 0.00 0.00 0.00 74 1015.2
20260508192145 74 220 2.6 14.8 0.00 0.00 0.00 74 1015.4
20260508191642 73 154 4.3 11.3 0.00 0.00 0.00 74 1015.6
20260508191138 72 196 5.2 12.2 0.00 0.00 0.00 74 1015.6
20260508190636 73 200 8.7 17.4 0.00 0.00 0.00 74 1015.7
20260508190132 72 201 6.1 8.7 0.00 0.00 0.00 74 1015.6
20260508185629 73 201 5.2 12.2 0.00 0.00 0.00 74 1016.0
20260508185126 74 255 5.2 8.7 0.00 0.00 0.00 74 1015.8
20260508184623 73 206 2.6 13.0 0.00 0.00 0.00 74 1015.8
20260508184120 71 153 5.2 9.6 0.00 0.00 0.00 74 1016.1
20260508183617 72 201 7.8 11.3 0.00 0.00 0.00 74 1016.1
20260508183113 71 206 6.1 9.6 0.00 0.00 0.00 74 1016.0
20260508182609 71 183 4.3 14.8 0.00 0.00 0.00 74 1016.5
20260508182106 70 206 6.1 8.7 0.00 0.00 0.00 74 1016.4
20260508181601 71 213 7.0 10.4 0.00 0.00 0.00 74 1016.1
20260508181059 71 200 7.0 8.7 0.00 0.00 0.00 74 1016.4
20260508180555 71 186 4.3 12.2 0.00 0.00 0.00 74 1016.5
20260508180052 71 187 6.1 13.0 0.00 0.00 0.00 74 1016.7
20260508175548 72 241 7.0 9.6 0.00 0.00 0.00 74 1016.8
20260508175046 71 107 5.2 7.8 0.00 0.00 0.00 74 1016.8
20260508174543 71 225 7.0 13.0 0.00 0.00 0.00 74 1016.7
20260508174040 70 219 11.3 12.2 0.00 0.00 0.00 74 1016.9
20260508173537 69 220 10.4 14.8 0.00 0.00 0.00 74 1017.1
20260508173033 70 199 11.3 13.9 0.00 0.00 0.00 74 1016.9
20260508172530 70 201 4.3 10.4 0.00 0.00 0.00 74 1017.1
20260508172027 69 277 6.1 12.2 0.00 0.00 0.00 74 1017.3
20260508171523 70 228 4.3 11.3 0.00 0.00 0.00 74 1017.6
20260508171020 69 225 7.8 12.2 0.00 0.00 0.00 74 1017.6
20260508170517 70 198 4.3 14.8 0.00 0.00 0.00 74 1017.5
20260508170015 68 246 15.6 15.6 0.00 0.00 0.00 74 1017.5
20260508165512 69 230 6.1 13.0 0.00 0.00 0.00 74 1017.7
20260508165008 69 229 6.1 13.0 0.00 0.00 0.00 74 1017.9
20260508164505 69 200 7.0 16.5 0.00 0.00 0.00 74 1018.0
20260508164001 70 206 4.3 5.2 0.00 0.00 0.00 74 1018.2
20260508163459 69 215 6.1 6.1 0.00 0.00 0.00 74 1018.1
20260508162955 69 228 4.3 13.0 0.00 0.00 0.00 74 1018.3
20260508162453 68 206 2.6 9.6 0.00 0.00 0.00 74 1018.0
20260508161949 67 260 6.1 14.8 0.00 0.00 0.00 73 1018.3
20260508161446 68 217 7.0 14.8 0.00 0.00 0.00 73 1018.3
20260508160943 67 210 6.1 15.6 0.00 0.00 0.00 73 1018.6
20260508160443 67 225 3.5 14.8 0.00 0.00 0.00 73 1018.5
20260508155938 66 250 11.3 15.6 0.00 0.00 0.00 73 1018.4
20260508155436 66 231 14.8 20.0 0.00 0.00 0.00 73 1018.7
20260508154932 66 239 7.8 17.4 0.00 0.00 0.00 73 1018.7
20260508154430 66 211 6.1 13.0 0.00 0.00 0.00 73 1018.7
20260508153926 66 205 12.2 14.8 0.00 0.00 0.00 73 1018.7
20260508153423 66 245 7.0 15.6 0.00 0.00 0.00 73 1018.6
20260508152919 66 239 5.2 13.9 0.00 0.00 0.00 73 1018.7
20260508152416 65 215 5.2 20.0 0.00 0.00 0.00 73 1018.7
20260508151913 65 198 11.3 14.8 0.00 0.00 0.00 73 1018.6
20260508151410 65 201 12.2 13.0 0.00 0.00 0.00 73 1018.8
20260508150906 64 190 2.6 13.9 0.00 0.00 0.00 73 1018.9
20260508150403 64 219 7.8 14.8 0.00 0.00 0.00 73 1018.9
20260508145859 64 222 12.2 15.6 0.00 0.00 0.00 73 1018.8
20260508145355 64 211 9.6 15.6 0.00 0.00 0.00 73 1019.1
20260508144852 63 223 13.9 19.1 0.00 0.00 0.00 73 1019.1
20260508144350 63 229 4.3 13.0 0.00 0.00 0.00 73 1019.3
20260508143847 63 225 7.0 13.0 0.00 0.00 0.00 73 1019.2
20260508143344 63 270 2.6 12.2 0.00 0.00 0.00 73 1019.2
20260508142841 62 203 6.1 13.0 0.00 0.00 0.00 73 1019.3
20260508142338 62 191 4.3 13.0 0.00 0.00 0.00 73 1019.2
20260508141834 62 222 6.1 10.4 0.00 0.00 0.00 73 1019.1
20260508141331 62 225 7.0 8.7 0.00 0.00 0.00 73 1019.3
20260508140829 61 203 6.1 10.4 0.00 0.00 0.00 73 1019.4
20260508140326 60 211 8.7 15.6 0.00 0.00 0.00 73 1019.4
20260508135821 60 200 6.1 13.9 0.00 0.00 0.00 73 1019.5
20260508135318 60 243 7.8 15.6 0.00 0.00 0.00 73 1019.4
20260508134814 60 222 11.3 11.3 0.00 0.00 0.00 73 1019.4
20260508134311 59 207 5.2 14.8 0.00 0.00 0.00 73 1019.4
20260508133807 59 220 7.8 11.3 0.00 0.00 0.00 73 1019.6
20260508133306 59 240 4.3 11.3 0.00 0.00 0.00 73 1019.8
20260508132803 59 203 2.6 9.6 0.00 0.00 0.00 73 1019.9
20260508132300 59 203 2.6 9.6 0.00 0.00 0.00 73 1019.6
20260508131756 58 223 7.0 11.3 0.00 0.00 0.00 72 1019.8
20260508131252 58 223 7.0 11.3 0.00 0.00 0.00 72 1019.7
20260508130749 58 247 3.5 4.3 0.00 0.00 0.00 72 1019.7
20260508130246 57 225 9.6 9.6 0.00 0.00 0.00 72 1019.6
20260508125741 57 227 7.0 8.7 0.00 0.00 0.00 72 1019.7
20260508125238 57 229 3.5 4.3 0.00 0.00 0.00 72 1019.5
20260508124737 57 229 3.5 4.3 0.00 0.00 0.00 72 1019.6
20260508124233 0 0.0 0.0 0.00 0.00 0.00 1019.6
20260508123732 0 0.0 0.0 0.00 0.00 0.00 1019.5
20260508123229 0 0.0 0.0 0.00 0.00 0.00 1019.6
20260508122725 0 0.0 0.0 0.00 0.00 0.00 1019.3
20260508122222 0 0.0 0.0 0.00 0.00 0.00 1019.6
20260508121720 0 0.0 0.0 0.00 0.00 0.00 1019.5
20260508121218 0 0.0 0.0 0.00 0.00 0.00 1019.6
20260508120715 0 0.0 0.0 0.00 0.00 0.00 1019.5
20260508120213 0 0.0 0.0 0.00 0.00 0.00 1019.5
20260508115710 0 0.0 0.0 0.00 0.00 0.00 1019.6
20260508115207 0 0.0 0.0 0.00 0.00 0.00 1019.6
20260508114704 0 0.0 0.0 0.00 0.00 0.00 1019.5
20260508114201 0 0.0 0.0 0.00 0.00 0.00 1019.3
20260508113657 0 0.0 0.0 0.00 0.00 0.00 1019.4
20260508113156 0 0.0 0.0 0.00 0.00 0.00 1019.5
20260508112652 0 0.0 0.0 0.00 0.00 0.00 1019.1
20260508112149 0 0.0 0.0 0.00 0.00 0.00 1019.3
20260508111645 0 0.0 0.0 0.00 0.00 0.00 1019.3
20260508111143 0 0.0 0.0 0.00 0.00 0.00 1018.9
20260508110640 0 0.0 0.0 0.00 0.00 0.00 1018.9
20260508110137 0 0.0 0.0 0.00 0.00 0.00 1018.8
20260508105631 0 0.0 0.0 0.00 0.00 0.00 1019.1
20260508105129 0 0.0 0.0 0.00 0.00 0.00 1018.8
20260508104626 0 0.0 0.0 0.00 0.00 0.00 1018.7
20260508104123 0 0.0 0.0 0.00 0.00 0.00 1018.9
20260508103620 0 0.0 0.0 0.00 0.00 0.00 1018.6
20260508103117 0 0.0 0.0 0.00 0.00 0.00 1018.6
20260508102614 0 0.0 0.0 0.00 0.00 0.00 1018.6
20260508102112 0 0.0 0.0 0.00 0.00 0.00 1018.8
20260508101609 0 0.0 0.0 0.00 0.00 0.00 1018.8
20260508101107 0 0.0 0.0 0.00 0.00 0.00 1018.6
20260508100604 0 0.0 0.0 0.00 0.00 0.00 1018.7
20260508095558 0 0.0 0.0 0.00 0.00 0.00 1018.8
20260508095055 0 0.0 0.0 0.00 0.00 0.00 1018.9
20260508094552 0 0.0 0.0 0.00 0.00 0.00 1018.8
20260508094049 0 0.0 0.0 0.00 0.00 0.00 1018.9
20260508093546 0 0.0 0.0 0.00 0.00 0.00 1018.9
20260508093044 0 0.0 0.0 0.00 0.00 0.00 1019.1
20260508092541 0 0.0 0.0 0.00 0.00 0.00 1018.9
20260508092040 0 0.0 0.0 0.00 0.00 0.00 1019.2
20260508091536 0 0.0 0.0 0.00 0.00 0.00 1019.2
20260508091033 0 0.0 0.0 0.00 0.00 0.00 1019.1
20260508090531 0 0.0 0.0 0.00 0.00 0.00 1019.3
20260508090028 0 0.0 0.0 0.00 0.00 0.00 1019.1
20260508085524 0 0.0 0.0 0.00 0.00 0.00 1018.9
20260508085021 0 0.0 0.0 0.00 0.00 0.00 1019.1
20260508084518 0 0.0 0.0 0.00 0.00 0.00 1018.7
20260508084016 0 0.0 0.0 0.00 0.00 0.00 1018.7
20260508083512 0 0.0 0.0 0.00 0.00 0.00 1018.9
20260508083009 0 0.0 0.0 0.00 0.00 0.00 1018.8
20260508082505 0 0.0 0.0 0.00 0.00 0.00 1018.7
20260508082003 0 0.0 0.0 0.00 0.00 0.00 1018.8
20260508081500 0 0.0 0.0 0.00 0.00 0.00 1018.9
20260508080955 0 0.0 0.0 0.00 0.00 0.00 1019.1
20260508080454 0 0.0 0.0 0.00 0.00 0.00 1018.9
20260508075950 0 0.0 0.0 0.00 0.00 0.00 1019.2
20260508075447 0 0.0 0.0 0.00 0.00 0.00 1019.1
20260508074945 0 0.0 0.0 0.00 0.00 0.00 1018.8
20260508074443 0 0.0 0.0 0.00 0.00 0.00 1018.9
20260508073939 0 0.0 0.0 0.00 0.00 0.00 1019.1
20260508073437 0 0.0 0.0 0.00 0.00 0.00 1019.1
20260508072934 0 0.0 0.0 0.00 0.00 0.00 1019.3
20260508072430 0 0.0 0.0 0.00 0.00 0.00 1019.5
20260508071927 0 0.0 0.0 0.00 0.00 0.00 1019.5
20260508071425 0 0.0 0.0 0.00 0.00 0.00 1019.7
20260508070923 0 0.0 0.0 0.00 0.00 0.00 1019.8
20260508070421 0 0.0 0.0 0.00 0.00 0.00 1019.9
20260508065918 0 0.0 0.0 0.00 0.00 0.00 1019.9
20260508065416 0 0.0 0.0 0.00 0.00 0.00 1019.8
20260508064914 0 0.0 0.0 0.00 0.00 0.00 1019.9
20260508064411 0 0.0 0.0 0.00 0.00 0.00 1020.1
20260508063909 0 0.0 0.0 0.00 0.00 0.00 1020.0
20260508063406 0 0.0 0.0 0.00 0.00 0.00 1020.2
20260508062903 0 0.0 0.0 0.00 0.00 0.00 1020.1
20260508062401 0 0.0 0.0 0.00 0.00 0.00 1020.0
20260508061857 0 0.0 0.0 0.00 0.00 0.00 1020.2
20260508061355 0 0.0 0.0 0.00 0.00 0.00 1020.1
20260508060851 0 0.0 0.0 0.00 0.00 0.00 1020.2
20260508060349 0 0.0 0.0 0.00 0.00 0.00 1020.3
20260508055844 0 0.0 0.0 0.00 0.00 0.00 1020.1
20260508055342 0 0.0 0.0 0.00 0.00 0.00 1020.2
20260508054838 0 0.0 0.0 0.00 0.00 0.00 1020.0
20260508054336 0 0.0 0.0 0.00 0.00 0.00 1020.1
20260508053832 0 0.0 0.0 0.00 0.00 0.00 1020.1
20260508053330 0 0.0 0.0 0.00 0.00 0.00 1020.3
20260508052827 0 0.0 0.0 0.00 0.00 0.00 1019.9
20260508052324 0 0.0 0.0 0.00 0.00 0.00 1020.3
20260508051820 0 0.0 0.0 0.00 0.00 0.00 1020.1
20260508051316 0 0.0 0.0 0.00 0.00 0.00 1020.2
20260508050812 0 0.0 0.0 0.00 0.00 0.00 1020.2
20260508050310 0 0.0 0.0 0.00 0.00 0.00 1020.2
20260508045805 0 0.0 0.0 0.00 0.00 0.00 1020.3
20260508045306 0 0.0 0.0 0.00 0.00 0.00 1020.2
20260508044801 0 0.0 0.0 0.00 0.00 0.00 1020.4
20260508044257 0 0.0 0.0 0.00 0.00 0.00 1020.5
20260508043753 0 0.0 0.0 0.00 0.00 0.00 1020.3
20260508043251 0 0.0 0.0 0.00 0.00 0.00 1020.3
20260508042747 0 0.0 0.0 0.00 0.00 0.00 1020.4
20260508042245 0 0.0 0.0 0.00 0.00 0.00 1020.3
20260508041741 0 0.0 0.0 0.00 0.00 0.00 1020.3
20260508041238 0 0.0 0.0 0.00 0.00 0.00 1020.2
20260508040734 0 0.0 0.0 0.00 0.00 0.00 1020.5
20260508040232 0 0.0 0.0 0.00 0.00 0.00 1020.2
20260508035729 0 0.0 0.0 0.00 0.00 0.00 1020.1
20260508035226 0 0.0 0.0 0.00 0.00 0.00 1020.0
20260508034723 0 0.0 0.0 0.00 0.00 0.00 1020.2
20260508034220 0 0.0 0.0 0.00 0.00 0.00 1020.2
20260508033717 0 0.0 0.0 0.00 0.00 0.00 1019.9
20260508033215 0 0.0 0.0 0.00 0.00 0.00 1019.9
20260508032712 0 0.0 0.0 0.00 0.00 0.00 1020.1
20260508032209 0 0.0 0.0 0.00 0.00 0.00 1020.3
20260508031706 0 0.0 0.0 0.00 0.00 0.00 1020.2
20260508031202 0 0.0 0.0 0.00 0.00 0.00 1020.4
20260508030659 0 0.0 0.0 0.00 0.00 0.00 1020.3
20260508030157 0 0.0 0.0 0.00 0.00 0.00 1020.3
20260508025653 0 0.0 0.0 0.00 0.00 0.00 1020.4
20260508025150 0 0.0 0.0 0.00 0.00 0.00 1020.2
20260508024646 0 0.0 0.0 0.00 0.00 0.00 1020.4
20260508024143 0 0.0 0.0 0.00 0.00 0.00 1020.2
20260508023639 0 0.0 0.0 0.00 0.00 0.00 1020.3
20260508023137 0 0.0 0.0 0.00 0.00 0.00 1020.0
20260508022632 0 0.0 0.0 0.00 0.00 0.00 1019.9
20260508022130 0 0.0 0.0 0.00 0.00 0.00 1019.9
20260508021626 0 0.0 0.0 0.00 0.00 0.00 1019.6
20260508021121 0 0.0 0.0 0.00 0.00 0.00 1019.6
20260508020620 0 0.0 0.0 0.00 0.00 0.00 1019.7
20260508020117 0 0.0 0.0 0.00 0.00 0.00 1019.4
20260508015614 0 0.0 0.0 0.00 0.00 0.00 1019.5
20260508015111 0 0.0 0.0 0.00 0.00 0.00 1019.3
20260508014607 0 0.0 0.0 0.00 0.00 0.00 1019.3
20260508014104 0 0.0 0.0 0.00 0.00 0.00 1019.2
20260508013600 0 0.0 0.0 0.00 0.00 0.00 1019.2
20260508013057 0 0.0 0.0 0.00 0.00 0.00 1019.2
20260508012554 0 0.0 0.0 0.00 0.00 0.00 1019.3
20260508012051 0 0.0 0.0 0.00 0.00 0.00 1019.2
20260508011550 0 0.0 0.0 0.00 0.00 0.00 1019.1
20260508011047 0 0.0 0.0 0.00 0.00 0.00 1019.2
20260508010543 0 0.0 0.0 0.00 0.00 0.00 1019.3
20260508010041 0 0.0 0.0 0.00 0.00 0.00 1019.3
20260508005537 0 0.0 0.0 0.00 0.00 0.00 1019.2
20260508005034 65 257 6.1 7.8 0.00 0.00 0.00 73 1019.1
20260508004530 65 257 6.1 7.8 0.00 0.00 0.00 73 1019.2
20260508004027 65 257 6.1 7.8 0.00 0.00 0.00 73 1019.2
20260508003523 65 257 6.1 7.8 0.00 0.00 0.00 73 1019.1
20260508003021 65 257 6.1 7.8 0.00 0.00 0.00 73 1019.2
20260508002517 65 257 6.1 7.8 0.00 0.00 0.00 73 1019.2
20260508002015 65 257 6.1 7.8 0.00 0.00 0.00 73 1019.2
20260508001510 65 257 6.1 7.8 0.00 0.00 0.00 73 1018.9
20260508001007 65 257 6.1 7.8 0.00 0.00 0.00 73 1019.1
20260508000502 65 257 6.1 7.8 0.00 0.00 0.00 73 1019.2
20260507235959 65 257 6.1 7.8 0.00 0.00 0.00 73 1019.3
20260507235451 65 257 6.1 7.8 0.00 0.00 0.00 73 1019.3
20260507234948 66 258 5.2 7.0 0.00 0.00 0.00 73 1019.3
20260507234444 66 258 5.2 7.0 0.00 0.00 0.00 73 1019.3
20260507233941 66 258 5.2 7.0 0.00 0.00 0.00 73 1018.9
20260507233437 66 258 5.2 7.0 0.00 0.00 0.00 73 1019.2
20260507232936 66 258 5.2 7.0 0.00 0.00 0.00 73 1019.3
20260507232432 66 255 7.0 8.7 0.00 0.00 0.00 73 1019.3
20260507231930 66 254 5.2 7.8 0.00 0.00 0.00 73 1019.2
20260507231426 66 197 4.3 7.8 0.00 0.00 0.00 73 1019.3
20260507230923 67 216 2.6 7.8 0.00 0.00 0.00 73 1019.1
20260507230420 66 285 5.2 8.7 0.00 0.00 0.00 73 1019.3
20260507225920 66 220 4.3 8.7 0.00 0.00 0.00 73 1019.2
20260507225417 66 220 4.3 8.7 0.00 0.00 0.00 73 1019.2
20260507224913 66 220 4.3 8.7 0.00 0.00 0.00 73 1019.1
20260507224409 67 252 4.3 7.0 0.00 0.00 0.00 73 1019.4
20260507223906 66 253 6.1 6.1 0.00 0.00 0.00 73 1019.3
20260507223402 66 246 7.8 10.4 0.00 0.00 0.00 73 1019.3
20260507222859 65 257 10.4 11.3 0.00 0.00 0.00 73 1019.5